This is the latest recevied weather packets stored in our database for station/object K4MGY-13. If no packets are shown the sender has not sent any weather packets the latest 10 day(s).
| Time | Temp. | Humidity | Pressure | Rain* | Wind** | Luminosity | Snow |
|---|---|---|---|---|---|---|---|
| 1777907857 | 21.11° C | 51% | 1013.5 hPa | 0 mm | - | - | - |
| 1777907556 | 21.11° C | 52% | 1013.8 hPa | 0 mm | - | - | - |
| 1777907226 | 20.56° C | 52% | 1013.8 hPa | 0 mm | - | - | - |
| 1777906297 | 20° C | 54% | 1013.8 hPa | 0 mm | - | - | - |
| 1777905967 | 20° C | 53% | 1013.8 hPa | 0 mm | - | - | - |
| 1777905667 | 20° C | 54% | 1013.7 hPa | 0 mm | - | - | - |
| 1777905367 | 19.44° C | 54% | 1013.9 hPa | 0 mm | - | - | - |
| 1777905066 | 19.44° C | 54% | 1013.9 hPa | 0 mm | - | - | - |
| 1777904766 | 18.89° C | 55% | 1014.1 hPa | 0 mm | - | - | - |
| 1777904468 | 18.89° C | 55% | 1014.2 hPa | 0 mm | - | - | - |
| 1777904136 | 18.33° C | 57% | 1014 hPa | 0 mm | - | - | - |
| 1777903836 | 18.33° C | 58% | 1014.3 hPa | 0 mm | - | - | - |
| 1777903506 | 17.78° C | 57% | 1014.2 hPa | 0 mm | - | - | - |
| 1777903180 | 17.78° C | 58% | 1014.6 hPa | 0 mm | - | - | - |
| 1777902847 | 17.22° C | 59% | 1014.6 hPa | 0 mm | - | - | - |
| 1777902548 | 16.67° C | 60% | 1014.6 hPa | 0 mm | - | - | - |
| 1777902246 | 16.67° C | 62% | 1014.7 hPa | 0 mm | - | - | - |
| 1777901946 | 16.11° C | 63% | 1014.9 hPa | 0 mm | - | - | - |
| 1777901646 | 15.56° C | 64% | 1014.7 hPa | 0 mm | - | - | - |
| 1777901348 | 15.56° C | 63% | 1014.8 hPa | 0 mm | - | - | - |
| 1777901016 | 15° C | 65% | 1014.9 hPa | 0 mm | - | - | - |
| 1777900686 | 15° C | 65% | 1015.2 hPa | 0 mm | - | - | - |
| 1777900356 | 14.44° C | 66% | 1014.9 hPa | 0 mm | - | - | - |
| 1777900027 | 14.44° C | 66% | 1014.9 hPa | 0 mm | - | - | - |
| 1777899696 | 13.89° C | 67% | 1015.2 hPa | 0 mm | - | - | - |
* Rain latest hour (hover to see other rain measurements)
** Current wind speed in m/s (hover to see current wind gust speed)